Showing default

QIANFAN-54, 62255

Orbit data source: Space-Track

QIANFAN-54, 62255 is a Chinese payload satellite in LEO that was launched on Thu, 05 Dec 2024 UTC via a CHANG ZHENG 6A launch vehicle from the Taiyaun Space Center, China (TSC). Payload-class satellites include a variety of spacecraft equipped with specific instruments for various scientific and technological missions. These include communications satellites like Starlink; space stations such as the ISS; scientific satellites like the Hubble; Earth observation satellites from companies like Planet Labs, Umbra, and HawkEye 360; GPS; miniature CubeSats for education and research; and military/defense satellites.

Loading next visibility...
Identifier
62255, 2024-232U
Orbit
LEO
Country
Flag of CNCN / PRC
Related business
Manufacturer
SECM
Mission
Operational Commercial Communications
Bus & Motor
QIANFAN, Unknown motor
Mass
267 kg wet, ~267 kg dry
Launch date (UTC)
2024-12-05 (9 months ago)
Launch vehicle
CHANG ZHENG 6A
Launch site
Taiyaun Space Center, China (TSC)
Object type
Payload
Rocket body
Debris
Shape & HBR
Box + 1 Pan, 5.0 m
Radar Cross Section
13.200 m², Large (>1 m²)

Expand to show TLE details & history
Last TLE update: 13 hours ago

TLE from 13 hours ago
0 QIANFAN-54
1 62255U 24232U   25261.20515057  .00000067  00000-0  84897-4 0  9997
2 62255  88.9969  49.5197 0003894 110.2367 249.9203 13.50969668 87861
Epoch: 2025-09-18T04:55Z
TLE epoch observation values (Epoch: 2025-09-18T04:55:25.009Z)
Latitude
-0.00002°
Longitude
-21.7046°
Altitude
1,072.643 km
Speed
7.315 km/s
True Right ascension
03h 18m 04s
True Declination
0° 00' 00"
Sunlit
Object was in full shadow at epoch
Visualization orbit readout
Latitude
Unknown
Longitude
Unknown
Altitude
Unknown
Speed
Unknown
Apparent Right ascension
Unknown
Apparent Declination
Unknown
Sunlit
N/A
Visualization observer readout
Local Sidereal Time
11:09:23
Azimuth
Unknown
Elevation
Unknown
Doppler factor
Unknown
Orbital elements
Apogee altitude
1,068.643 km
Perigee altitude
1,062.845 km
Semi-major axis
7,443.881 km
Eccentricity
0.00039
Inclination
88.9969°
RAAN
49.5197°
Arg. of periapsis
110.2367°
True anomaly
249.8784°
Mean anomaly
249.9203°
Eccentric anomaly
249.89935°
Mean motion
3.37943 °/min
Orbital period
106.53 mins
BSTAR
0.000084897
Loading maneuver chart data...
Computing Atmospheric mass density...
Loading historical data...
Loading historical data...
Loading historical data...
Loading historical data...
Loading historical data...
Loading historical data...
Loading historical data...

Documentation

Showing up to 5 results
|